Time,TemperatureF,DewpointF,PressureIn,WindDirection,WindDirectionDegrees,WindSpeedMPH,WindSpeedGustMPH,Humidity,HourlyPrecipIn,Conditions,Clouds,dailyrainin,SoftwareType,DateUTC
2013-02-12 00:00:00,31.1,29.0,29.71,WSW,239,3.0,3.0,92,0.00,,,0.05,Wunderground v.1.15,2013-02-12 05:00:00,
2013-02-12 00:01:00,31.0,28.9,29.70,SSW,204,3.0,8.0,92,0.00,,,0.05,Wunderground v.1.15,2013-02-12 05:01:00,
2013-02-12 00:03:00,31.0,28.9,29.71,WSW,252,3.0,8.0,92,0.00,,,0.00,Wunderground v.1.15,2013-02-12 05:03:00,
2013-02-12 00:08:00,31.0,28.9,29.71,SSW,198,3.0,8.0,92,0.00,,,0.00,Wunderground v.1.15,2013-02-12 05:08:00,
2013-02-12 00:13:00,31.0,28.9,29.70,WNW,287,3.0,8.0,92,0.00,,,0.00,Wunderground v.1.15,2013-02-12 05:13:00,
2013-02-12 00:17:00,31.0,28.9,29.70,West,281,3.0,8.0,92,0.00,,,0.00,Wunderground v.1.15,2013-02-12 05:17:00,
2013-02-12 00:22:00,30.9,28.6,29.70,WSW,251,3.0,8.0,91,0.00,,,0.00,Wunderground v.1.15,2013-02-12 05:22:00,
2013-02-12 00:27:00,30.9,28.6,29.70,West,270,3.0,8.0,91,0.00,,,0.00,Wunderground v.1.15,2013-02-12 05:27:00,
2013-02-12 00:33:00,30.9,28.6,29.70,WNW,297,2.0,8.0,91,0.00,,,0.00,Wunderground v.1.15,2013-02-12 05:33:00,
2013-02-12 00:38:00,30.8,28.5,29.70,West,273,2.0,8.0,91,0.00,,,0.00,Wunderground v.1.15,2013-02-12 05:38:00,
2013-02-12 00:43:00,30.8,28.8,29.69,WSW,248,2.0,8.0,92,0.00,,,0.00,Wunderground v.1.15,2013-02-12 05:43:00,
2013-02-12 00:48:00,30.8,28.5,29.69,WNW,290,3.0,8.0,91,0.00,,,0.00,Wunderground v.1.15,2013-02-12 05:48:00,
2013-02-12 00:53:00,30.8,28.8,29.69,WNW,285,2.0,8.0,92,0.00,,,0.00,Wunderground v.1.15,2013-02-12 05:53:00,
2013-02-12 00:59:00,30.8,28.5,29.70,West,273,2.0,8.0,91,0.00,,,0.00,Wunderground v.1.15,2013-02-12 05:59:00,
2013-02-12 01:04:00,30.9,28.6,29.70,West,269,3.0,8.0,91,0.00,,,0.00,Wunderground v.1.15,2013-02-12 06:04:00,
2013-02-12 01:09:00,30.9,28.3,29.70,SW,218,3.0,8.0,90,0.00,,,0.00,Wunderground v.1.15,2013-02-12 06:09:00,
2013-02-12 01:14:00,30.9,28.3,29.70,SSW,204,3.0,8.0,90,0.00,,,0.00,Wunderground v.1.15,2013-02-12 06:14:00,
2013-02-12 01:19:00,31.0,28.4,29.69,NW,321,3.0,8.0,90,0.00,,,0.00,Wunderground v.1.15,2013-02-12 06:19:00,
2013-02-12 01:25:00,31.0,28.4,29.70,SW,225,2.0,8.0,90,0.00,,,0.00,Wunderground v.1.15,2013-02-12 06:25:00,
2013-02-12 01:30:00,31.0,28.4,29.70,SW,221,4.0,9.0,90,0.00,,,0.00,Wunderground v.1.15,2013-02-12 06:30:00,
2013-02-12 01:35:00,31.0,28.4,29.70,SSW,204,4.0,9.0,90,0.00,,,0.00,Wunderground v.1.15,2013-02-12 06:35:00,
2013-02-12 01:40:00,31.0,28.4,29.71,WSW,255,4.0,4.0,90,0.00,,,0.00,Wunderground v.1.15,2013-02-12 06:40:00,
2013-02-12 01:45:00,31.0,28.4,29.71,West,277,4.0,8.0,90,0.00,,,0.00,Wunderground v.1.15,2013-02-12 06:45:00,
2013-02-12 01:51:00,31.0,28.4,29.71,WSW,252,3.0,8.0,90,0.00,,,0.00,Wunderground v.1.15,2013-02-12 06:51:00,
2013-02-12 01:56:00,30.9,28.3,29.71,West,266,3.0,8.0,90,0.00,,,0.00,Wunderground v.1.15,2013-02-12 06:56:00,
2013-02-12 02:01:00,30.9,28.3,29.71,NW,326,3.0,8.0,90,0.00,,,0.00,Wunderground v.1.15,2013-02-12 07:01:00,
2013-02-12 02:06:00,30.9,28.3,29.71,WNW,291,4.0,8.0,90,0.00,,,0.00,Wunderground v.1.15,2013-02-12 07:06:00,
2013-02-12 02:11:00,30.8,28.2,29.71,West,268,3.0,8.0,90,0.00,,,0.00,Wunderground v.1.15,2013-02-12 07:11:00,
2013-02-12 02:17:00,30.8,27.9,29.71,West,262,3.0,8.0,89,0.00,,,0.00,Wunderground v.1.15,2013-02-12 07:17:00,
2013-02-12 02:22:00,30.8,27.9,29.71,West,278,4.0,8.0,89,0.00,,,0.00,Wunderground v.1.15,2013-02-12 07:22:00,
2013-02-12 02:27:00,30.8,28.2,29.71,WNW,298,4.0,8.0,90,0.00,,,0.00,Wunderground v.1.15,2013-02-12 07:27:00,
2013-02-12 02:32:00,30.8,27.9,29.71,WNW,287,4.0,8.0,89,0.00,,,0.00,Wunderground v.1.15,2013-02-12 07:32:00,
2013-02-12 02:37:00,30.8,27.9,29.71,WNW,292,4.0,8.0,89,0.00,,,0.00,Wunderground v.1.15,2013-02-12 07:37:00,
2013-02-12 02:43:00,30.8,27.9,29.71,WSW,257,4.0,8.0,89,0.00,,,0.00,Wunderground v.1.15,2013-02-12 07:43:00,
2013-02-12 02:48:00,30.8,27.7,29.71,WSW,252,4.0,8.0,88,0.00,,,0.00,Wunderground v.1.15,2013-02-12 07:48:00,
2013-02-12 02:53:00,30.8,27.7,29.71,WSW,239,5.0,8.0,88,0.00,,,0.00,Wunderground v.1.15,2013-02-12 07:53:00,
2013-02-12 02:58:00,30.7,27.8,29.71,WNW,292,4.0,8.0,89,0.00,,,0.00,Wunderground v.1.15,2013-02-12 07:58:00,
2013-02-12 03:03:00,30.7,27.6,29.72,WSW,246,4.0,8.0,88,0.00,,,0.00,Wunderground v.1.15,2013-02-12 08:03:00,
2013-02-12 03:09:00,30.7,27.6,29.71,WSW,257,4.0,8.0,88,0.00,,,0.00,Wunderground v.1.15,2013-02-12 08:09:00,
2013-02-12 03:14:00,30.7,27.6,29.71,West,280,5.0,8.0,88,0.00,,,0.00,Wunderground v.1.15,2013-02-12 08:14:00,
2013-02-12 03:19:00,30.7,27.6,29.71,WSW,245,5.0,8.0,88,0.00,,,0.00,Wunderground v.1.15,2013-02-12 08:19:00,
2013-02-12 03:24:00,30.7,27.6,29.72,WNW,283,4.0,9.0,88,0.00,,,0.00,Wunderground v.1.15,2013-02-12 08:24:00,
2013-02-12 03:29:00,30.7,27.3,29.71,WSW,237,4.0,9.0,87,0.00,,,0.00,Wunderground v.1.15,2013-02-12 08:29:00,
2013-02-12 03:35:00,30.6,27.5,29.71,West,274,4.0,8.0,88,0.00,,,0.00,Wunderground v.1.15,2013-02-12 08:35:00,
2013-02-12 03:40:00,30.6,27.2,29.71,NW,311,4.0,4.0,87,0.00,,,0.00,Wunderground v.1.15,2013-02-12 08:40:00,
2013-02-12 03:45:00,30.6,27.2,29.71,WNW,297,5.0,8.0,87,0.00,,,0.00,Wunderground v.1.15,2013-02-12 08:45:00,
2013-02-12 03:50:00,30.6,27.2,29.71,WNW,288,4.0,4.0,87,0.00,,,0.00,Wunderground v.1.15,2013-02-12 08:50:00,
2013-02-12 03:55:00,30.6,27.2,29.71,WSW,240,4.0,12.0,87,0.00,,,0.00,Wunderground v.1.15,2013-02-12 08:55:00,
2013-02-12 04:01:00,30.6,26.9,29.72,West,275,5.0,8.0,86,0.00,,,0.00,Wunderground v.1.15,2013-02-12 09:01:00,
2013-02-12 04:06:00,30.7,27.0,29.72,West,262,5.0,8.0,86,0.00,,,0.00,Wunderground v.1.15,2013-02-12 09:06:00,
2013-02-12 04:11:00,30.7,27.0,29.72,West,264,5.0,9.0,86,0.00,,,0.00,Wunderground v.1.15,2013-02-12 09:11:00,
2013-02-12 04:16:00,30.7,27.0,29.72,WNW,285,6.0,9.0,86,0.00,,,0.00,Wunderground v.1.15,2013-02-12 09:16:00,
2013-02-12 04:21:00,30.7,27.0,29.72,NW,319,6.0,9.0,86,0.00,,,0.00,Wunderground v.1.15,2013-02-12 09:21:00,
2013-02-12 04:27:00,30.7,27.0,29.73,WNW,285,5.0,9.0,86,0.00,,,0.00,Wunderground v.1.15,2013-02-12 09:27:00,
2013-02-12 04:32:00,30.7,27.0,29.73,WNW,288,5.0,8.0,86,0.00,,,0.00,Wunderground v.1.15,2013-02-12 09:32:00,
2013-02-12 04:37:00,30.8,26.8,29.73,WNW,297,5.0,8.0,85,0.00,,,0.00,Wunderground v.1.15,2013-02-12 09:37:00,
2013-02-12 04:42:00,30.8,26.8,29.73,West,266,6.0,10.0,85,0.00,,,0.00,Wunderground v.1.15,2013-02-12 09:42:00,
2013-02-12 04:47:00,30.8,26.8,29.73,NNW,336,5.0,10.0,85,0.00,,,0.00,Wunderground v.1.15,2013-02-12 09:47:00,
2013-02-12 04:53:00,30.7,26.7,29.73,WSW,246,5.0,8.0,85,0.00,,,0.00,Wunderground v.1.15,2013-02-12 09:53:00,
2013-02-12 04:58:00,30.7,26.7,29.73,West,281,4.0,8.0,85,0.00,,,0.00,Wunderground v.1.15,2013-02-12 09:58:00,
2013-02-12 05:03:00,30.6,26.6,29.74,West,281,4.0,8.0,85,0.00,,,0.00,Wunderground v.1.15,2013-02-12 10:03:00,
2013-02-12 05:08:00,30.6,26.6,29.74,West,259,5.0,8.0,85,0.00,,,0.00,Wunderground v.1.15,2013-02-12 10:08:00,
2013-02-12 05:13:00,30.7,26.4,29.75,West,261,6.0,8.0,84,0.00,,,0.00,Wunderground v.1.15,2013-02-12 10:13:00,
2013-02-12 05:19:00,30.7,26.4,29.75,South,184,6.0,9.0,84,0.00,,,0.00,Wunderground v.1.15,2013-02-12 10:19:00,
2013-02-12 05:24:00,30.6,26.3,29.74,WNW,294,6.0,11.0,84,0.00,,,0.00,Wunderground v.1.15,2013-02-12 10:24:00,
2013-02-12 05:29:00,30.6,26.6,29.74,WNW,302,5.0,11.0,85,0.00,,,0.00,Wunderground v.1.15,2013-02-12 10:29:00,
2013-02-12 05:34:00,30.5,26.5,29.75,West,281,5.0,8.0,85,0.00,,,0.00,Wunderground v.1.15,2013-02-12 10:34:00,
2013-02-12 05:39:00,30.5,26.2,29.75,West,262,5.0,9.0,84,0.00,,,0.00,Wunderground v.1.15,2013-02-12 10:39:00,
2013-02-12 05:44:00,30.5,26.2,29.75,WSW,252,5.0,8.0,84,0.00,,,0.00,Wunderground v.1.15,2013-02-12 10:44:00,
2013-02-12 05:49:00,30.5,26.0,29.75,WNW,287,5.0,8.0,83,0.00,,,0.00,Wunderground v.1.15,2013-02-12 10:49:00,
2013-02-12 05:54:00,30.5,26.0,29.75,West,270,6.0,16.0,83,0.00,,,0.00,Wunderground v.1.15,2013-02-12 10:54:00,
2013-02-12 05:59:00,30.5,25.4,29.75,WNW,291,8.0,16.0,81,0.00,,,0.00,Wunderground v.1.15,2013-02-12 10:59:00,
2013-02-12 06:04:00,30.5,25.7,29.75,West,275,7.0,14.0,82,0.00,,,0.00,Wunderground v.1.15,2013-02-12 11:04:00,
2013-02-12 06:09:00,30.5,25.7,29.76,WSW,250,6.0,14.0,82,0.00,,,0.00,Wunderground v.1.15,2013-02-12 11:09:00,
2013-02-12 06:14:00,30.5,25.4,29.76,WSW,255,7.0,14.0,81,0.00,,,0.00,Wunderground v.1.15,2013-02-12 11:14:00,
2013-02-12 06:20:00,30.4,25.6,29.75,WSW,242,6.0,14.0,82,0.00,,,0.00,Wunderground v.1.15,2013-02-12 11:20:00,
2013-02-12 06:25:00,30.4,25.3,29.76,WSW,253,7.0,14.0,81,0.00,,,0.00,Wunderground v.1.15,2013-02-12 11:25:00,
2013-02-12 06:30:00,30.3,25.5,29.75,West,277,7.0,7.0,82,0.00,,,0.00,Wunderground v.1.15,2013-02-12 11:30:00,
2013-02-12 06:35:00,30.3,25.5,29.75,North,349,7.0,14.0,82,0.00,,,0.00,Wunderground v.1.15,2013-02-12 11:35:00,
2013-02-12 06:40:00,30.3,25.5,29.76,West,281,7.0,14.0,82,0.00,,,0.00,Wunderground v.1.15,2013-02-12 11:40:00,
2013-02-12 06:45:00,30.3,25.2,29.76,WNW,295,7.0,14.0,81,0.00,,,0.00,Wunderground v.1.15,2013-02-12 11:45:00,
2013-02-12 06:50:00,30.2,25.1,29.76,West,274,7.0,7.0,81,0.00,,,0.00,Wunderground v.1.15,2013-02-12 11:50:00,
2013-02-12 06:55:00,30.2,25.4,29.76,WNW,291,7.0,14.0,82,0.00,,,0.00,Wunderground v.1.15,2013-02-12 11:55:00,
2013-02-12 07:00:00,30.2,25.4,29.76,WSW,248,6.0,14.0,82,0.00,,,0.00,Wunderground v.1.15,2013-02-12 12:00:00,
2013-02-12 07:06:00,30.2,25.4,29.76,WNW,300,6.0,21.0,82,0.00,,,0.00,Wunderground v.1.15,2013-02-12 12:06:00,
2013-02-12 07:12:00,30.2,25.1,29.77,SSE,148,6.0,21.0,81,0.00,,,0.00,Wunderground v.1.15,2013-02-12 12:12:00,
2013-02-12 07:17:00,30.2,25.1,29.77,South,186,6.0,21.0,81,0.00,,,0.00,Wunderground v.1.15,2013-02-12 12:17:00,
2013-02-12 07:22:00,30.2,25.1,29.77,WNW,294,6.0,21.0,81,0.00,,,0.00,Wunderground v.1.15,2013-02-12 12:22:00,
2013-02-12 07:27:00,30.2,25.1,29.76,West,274,6.0,21.0,81,0.00,,,0.00,Wunderground v.1.15,2013-02-12 12:27:00,
2013-02-12 07:32:00,30.2,25.4,29.76,WNW,283,6.0,21.0,82,0.00,,,0.00,Wunderground v.1.15,2013-02-12 12:32:00,
2013-02-12 07:38:00,30.2,25.4,29.77,West,266,6.0,21.0,82,0.00,,,0.00,Wunderground v.1.15,2013-02-12 12:38:00,
2013-02-12 07:43:00,30.3,25.5,29.77,WNW,286,5.0,21.0,82,0.00,,,0.00,Wunderground v.1.15,2013-02-12 12:43:00,
2013-02-12 07:48:00,30.3,25.5,29.77,WNW,294,5.0,21.0,82,0.00,,,0.00,Wunderground v.1.15,2013-02-12 12:48:00,
2013-02-12 07:53:00,30.3,25.2,29.77,WSW,252,6.0,21.0,81,0.00,,,0.00,Wunderground v.1.15,2013-02-12 12:53:00,
2013-02-12 07:58:00,30.3,24.9,29.78,West,278,7.0,21.0,80,0.00,,,0.00,Wunderground v.1.15,2013-02-12 12:58:00,
2013-02-12 08:04:00,30.4,25.0,29.78,WNW,293,7.0,21.0,80,0.00,,,0.00,Wunderground v.1.15,2013-02-12 13:04:00,
2013-02-12 08:09:00,30.4,25.0,29.79,East,89,6.0,21.0,80,0.00,,,0.00,Wunderground v.1.15,2013-02-12 13:09:00,
2013-02-12 08:14:00,30.3,25.2,29.78,WNW,292,6.0,21.0,81,0.00,,,0.00,Wunderground v.1.15,2013-02-12 13:14:00,
2013-02-12 08:19:00,30.3,25.2,29.79,WNW,288,6.0,21.0,81,0.00,,,0.00,Wunderground v.1.15,2013-02-12 13:19:00,
2013-02-12 08:24:00,30.2,25.1,29.79,SW,218,7.0,21.0,81,0.00,,,0.00,Wunderground v.1.15,2013-02-12 13:24:00,
2013-02-12 08:29:00,30.3,25.2,29.79,SW,228,7.0,21.0,81,0.00,,,0.00,Wunderground v.1.15,2013-02-12 13:29:00,
2013-02-12 08:35:00,30.2,25.4,29.79,West,266,6.0,21.0,82,0.00,,,0.00,Wunderground v.1.15,2013-02-12 13:35:00,
2013-02-12 08:40:00,30.2,25.4,29.79,SW,214,6.0,21.0,82,0.00,,,0.00,Wunderground v.1.15,2013-02-12 13:40:00,
2013-02-12 08:45:00,30.1,25.6,29.79,WNW,290,9.0,21.0,83,0.00,,,0.00,Wunderground v.1.15,2013-02-12 13:45:00,
2013-02-12 08:50:00,30.1,25.6,29.79,WNW,295,9.0,9.0,83,0.00,,,0.00,Wunderground v.1.15,2013-02-12 13:50:00,
2013-02-12 08:55:00,30.0,25.8,29.79,West,278,7.0,21.0,84,0.00,,,0.00,Wunderground v.1.15,2013-02-12 13:55:00,
2013-02-12 09:00:00,29.9,25.7,29.79,West,274,6.0,6.0,84,0.00,,,0.00,Wunderground v.1.15,2013-02-12 14:00:00,
2013-02-12 09:05:00,29.9,25.7,29.79,West,262,6.0,21.0,84,0.00,,,0.00,Wunderground v.1.15,2013-02-12 14:05:00,
2013-02-12 09:10:00,29.8,25.8,29.80,WNW,293,7.0,7.0,85,0.00,,,0.00,Wunderground v.1.15,2013-02-12 14:10:00,
2013-02-12 09:15:00,29.8,25.8,29.80,WNW,284,7.0,21.0,85,0.00,,,0.00,Wunderground v.1.15,2013-02-12 14:15:00,
2013-02-12 09:20:00,29.9,25.7,29.80,NW,314,7.0,7.0,84,0.00,,,0.00,Wunderground v.1.15,2013-02-12 14:20:00,
2013-02-12 09:26:00,30.2,25.7,29.80,West,268,6.0,21.0,83,0.00,,,0.00,Wunderground v.1.15,2013-02-12 14:26:00,
2013-02-12 09:31:00,30.4,25.9,29.80,WNW,299,6.0,9.0,83,0.00,,,0.00,Wunderground v.1.15,2013-02-12 14:31:00,
2013-02-12 09:36:00,30.5,25.7,29.80,NW,315,6.0,21.0,82,0.00,,,0.00,Wunderground v.1.15,2013-02-12 14:36:00,
2013-02-12 09:41:00,30.6,25.8,29.80,NW,308,6.0,21.0,82,0.00,,,0.00,Wunderground v.1.15,2013-02-12 14:41:00,
2013-02-12 09:46:00,30.5,25.4,29.80,NW,307,7.0,21.0,81,0.00,,,0.00,Wunderground v.1.15,2013-02-12 14:46:00,
2013-02-12 09:52:00,30.5,25.7,29.81,WNW,302,7.0,21.0,82,0.00,,,0.00,Wunderground v.1.15,2013-02-12 14:52:00,
2013-02-12 09:57:00,30.6,25.5,29.81,NW,319,6.0,21.0,81,0.00,,,0.00,Wunderground v.1.15,2013-02-12 14:57:00,
2013-02-12 10:02:00,30.5,25.4,29.81,WSW,250,7.0,21.0,81,0.00,,,0.00,Wunderground v.1.15,2013-02-12 15:02:00,
2013-02-12 10:07:00,30.5,25.4,29.81,NW,322,7.0,21.0,81,0.00,,,0.00,Wunderground v.1.15,2013-02-12 15:07:00,
2013-02-12 10:12:00,30.4,25.3,29.81,NNW,333,8.0,21.0,81,0.00,,,0.00,Wunderground v.1.15,2013-02-12 15:12:00,
2013-02-12 10:18:00,30.4,25.3,29.82,West,260,7.0,21.0,81,0.00,,,0.00,Wunderground v.1.15,2013-02-12 15:18:00,
2013-02-12 10:23:00,30.5,25.4,29.82,WNW,294,6.0,21.0,81,0.00,,,0.00,Wunderground v.1.15,2013-02-12 15:23:00,
2013-02-12 10:28:00,30.4,25.3,29.82,WNW,283,6.0,21.0,81,0.00,,,0.00,Wunderground v.1.15,2013-02-12 15:28:00,
2013-02-12 10:33:00,30.4,25.6,29.82,West,274,7.0,21.0,82,0.00,,,0.00,Wunderground v.1.15,2013-02-12 15:33:00,
2013-02-12 10:38:00,30.4,25.3,29.82,West,278,7.0,21.0,81,0.00,,,0.00,Wunderground v.1.15,2013-02-12 15:38:00,
2013-02-12 10:44:00,30.4,25.6,29.82,WNW,282,7.0,21.0,82,0.00,,,0.00,Wunderground v.1.15,2013-02-12 15:44:00,
2013-02-12 10:49:00,30.3,25.5,29.83,WSW,239,7.0,21.0,82,0.00,,,0.00,Wunderground v.1.15,2013-02-12 15:49:00,
2013-02-12 10:54:00,30.3,25.5,29.83,NW,315,6.0,21.0,82,0.00,,,0.00,Wunderground v.1.15,2013-02-12 15:54:00,
2013-02-12 10:59:00,30.3,25.5,29.84,WNW,284,6.0,21.0,82,0.00,,,0.00,Wunderground v.1.15,2013-02-12 15:59:00,
2013-02-12 11:04:00,30.3,25.5,29.83,NW,319,7.0,21.0,82,0.00,,,0.00,Wunderground v.1.15,2013-02-12 16:04:00,
2013-02-12 11:10:00,30.3,25.5,29.84,WSW,250,7.0,7.0,82,0.00,,,0.00,Wunderground v.1.15,2013-02-12 16:10:00,
2013-02-12 11:15:00,30.3,25.5,29.84,SSW,211,7.0,21.0,82,0.00,,,0.00,Wunderground v.1.15,2013-02-12 16:15:00,
2013-02-12 11:20:00,30.2,25.4,29.84,WNW,288,8.0,8.0,82,0.00,,,0.00,Wunderground v.1.15,2013-02-12 16:20:00,
2013-02-12 11:25:00,30.2,25.1,29.85,WSW,252,8.0,21.0,81,0.00,,,0.00,Wunderground v.1.15,2013-02-12 16:25:00,
2013-02-12 12:25:00,30.7,25.0,29.85,SW,221,7.0,7.0,79,0.00,,,0.00,Wunderground v.1.15,2013-02-12 17:25:00,
2013-02-12 12:31:00,30.7,24.7,29.85,SSW,198,6.0,21.0,78,0.00,,,0.00,Wunderground v.1.15,2013-02-12 17:31:00,
2013-02-12 12:36:00,30.6,24.6,29.85,NW,309,7.0,7.0,78,0.00,,,0.00,Wunderground v.1.15,2013-02-12 17:36:00,
2013-02-12 12:41:00,30.6,24.6,29.85,West,276,7.0,21.0,78,0.00,,,0.00,Wunderground v.1.15,2013-02-12 17:41:00,
2013-02-12 12:46:00,30.5,24.5,29.85,WSW,250,7.0,8.0,78,0.00,,,0.00,Wunderground v.1.15,2013-02-12 17:46:00,
2013-02-12 12:52:00,30.6,24.9,29.85,WNW,302,6.0,21.0,79,0.00,,,0.00,Wunderground v.1.15,2013-02-12 17:52:00,
2013-02-12 12:57:00,30.6,24.9,29.85,West,264,5.0,21.0,79,0.00,,,0.00,Wunderground v.1.15,2013-02-12 17:57:00,
2013-02-12 13:02:00,30.6,24.6,29.86,NNE,18,5.0,21.0,78,0.00,,,0.00,Wunderground v.1.15,2013-02-12 18:02:00,
2013-02-12 13:07:00,30.5,24.8,29.85,NW,316,7.0,21.0,79,0.00,,,0.00,Wunderground v.1.15,2013-02-12 18:07:00,
2013-02-12 13:12:00,30.4,24.7,29.85,NW,314,8.0,21.0,79,0.00,,,0.00,Wunderground v.1.15,2013-02-12 18:12:00,
2013-02-12 13:18:00,30.4,24.7,29.85,West,277,9.0,21.0,79,0.00,,,0.00,Wunderground v.1.15,2013-02-12 18:18:00,
2013-02-12 13:23:00,30.4,25.0,29.85,West,281,7.0,21.0,80,0.00,,,0.00,Wunderground v.1.15,2013-02-12 18:23:00,
2013-02-12 13:28:00,30.4,25.0,29.85,West,264,5.0,21.0,80,0.00,,,0.00,Wunderground v.1.15,2013-02-12 18:28:00,
2013-02-12 13:33:00,30.2,25.1,29.85,West,278,5.0,21.0,81,0.00,,,0.00,Wunderground v.1.15,2013-02-12 18:33:00,
2013-02-12 13:38:00,30.0,24.9,29.86,WNW,283,6.0,21.0,81,0.00,,,0.00,Wunderground v.1.15,2013-02-12 18:38:00,
2013-02-12 13:44:00,30.0,24.9,29.86,SSW,198,5.0,21.0,81,0.00,,,0.00,Wunderground v.1.15,2013-02-12 18:44:00,
2013-02-12 13:49:00,30.0,25.2,29.87,WNW,295,4.0,21.0,82,0.00,,,0.00,Wunderground v.1.15,2013-02-12 18:49:00,
2013-02-12 13:54:00,29.8,25.0,29.87,NW,314,4.0,21.0,82,0.00,,,0.00,Wunderground v.1.15,2013-02-12 18:54:00,
2013-02-12 13:59:00,29.7,24.9,29.87,NW,321,5.0,21.0,82,0.00,,,0.00,Wunderground v.1.15,2013-02-12 18:59:00,
2013-02-12 14:04:00,29.7,24.9,29.88,WSW,252,5.0,21.0,82,0.00,,,0.00,Wunderground v.1.15,2013-02-12 19:04:00,
2013-02-12 14:10:00,29.6,24.8,29.88,West,263,4.0,21.0,82,0.00,,,0.00,Wunderground v.1.15,2013-02-12 19:10:00,
2013-02-12 14:15:00,29.6,24.8,29.88,NW,312,5.0,21.0,82,0.00,,,0.00,Wunderground v.1.15,2013-02-12 19:15:00,
2013-02-12 14:20:00,29.5,24.7,29.88,West,269,6.0,6.0,82,0.00,,,0.00,Wunderground v.1.15,2013-02-12 19:20:00,
2013-02-12 14:25:00,29.5,24.7,29.87,SW,219,6.0,21.0,82,0.00,,,0.00,Wunderground v.1.15,2013-02-12 19:25:00,
2013-02-12 14:30:00,29.5,24.7,29.87,WSW,256,5.0,21.0,82,0.00,,,0.00,Wunderground v.1.15,2013-02-12 19:30:00,
2013-02-12 14:36:00,29.5,24.7,29.87,West,280,5.0,21.0,82,0.00,,,0.00,Wunderground v.1.15,2013-02-12 19:36:00,
2013-02-12 14:41:00,29.4,24.6,29.87,WNW,291,5.0,21.0,82,0.00,,,0.00,Wunderground v.1.15,2013-02-12 19:41:00,
2013-02-12 14:46:00,29.4,24.6,29.86,WNW,297,6.0,21.0,82,0.00,,,0.00,Wunderground v.1.15,2013-02-12 19:46:00,
2013-02-12 14:51:00,29.4,24.6,29.86,WNW,302,5.0,21.0,82,0.00,,,0.00,Wunderground v.1.15,2013-02-12 19:51:00,
2013-02-12 14:56:00,29.4,24.6,29.86,NW,310,5.0,21.0,82,0.00,,,0.00,Wunderground v.1.15,2013-02-12 19:56:00,
2013-02-12 15:02:00,29.5,24.4,29.87,WSW,243,4.0,21.0,81,0.00,,,0.00,Wunderground v.1.15,2013-02-12 20:02:00,
2013-02-12 15:07:00,29.5,24.4,29.86,West,280,3.0,21.0,81,0.00,,,0.00,Wunderground v.1.15,2013-02-12 20:07:00,
2013-02-12 15:12:00,29.6,24.5,29.86,SW,214,3.0,21.0,81,0.00,,,0.00,Wunderground v.1.15,2013-02-12 20:12:00,
2013-02-12 15:17:00,29.7,24.6,29.86,WNW,290,3.0,21.0,81,0.00,,,0.00,Wunderground v.1.15,2013-02-12 20:17:00,
2013-02-12 15:22:00,29.8,24.4,29.86,West,266,3.0,21.0,80,0.00,,,0.00,Wunderground v.1.15,2013-02-12 20:22:00,
2013-02-12 15:28:00,29.8,24.4,29.85,WNW,287,3.0,21.0,80,0.00,,,0.00,Wunderground v.1.15,2013-02-12 20:28:00,
2013-02-12 15:33:00,29.8,24.1,29.86,NNW,344,4.0,21.0,79,0.00,,,0.00,Wunderground v.1.15,2013-02-12 20:33:00,
2013-02-12 15:38:00,29.8,24.1,29.86,SW,225,4.0,21.0,79,0.00,,,0.00,Wunderground v.1.15,2013-02-12 20:38:00,
2013-02-12 15:43:00,29.8,24.1,29.87,SW,226,3.0,21.0,79,0.00,,,0.00,Wunderground v.1.15,2013-02-12 20:43:00,
2013-02-12 15:48:00,29.7,24.0,29.87,West,278,4.0,21.0,79,0.00,,,0.00,Wunderground v.1.15,2013-02-12 20:48:00,
2013-02-12 15:53:00,29.6,24.2,29.87,SE,143,4.0,21.0,80,0.00,,,0.00,Wunderground v.1.15,2013-02-12 20:53:00,
2013-02-12 15:58:00,29.4,23.7,29.87,WSW,253,4.0,21.0,79,0.00,,,0.00,Wunderground v.1.15,2013-02-12 20:58:00,
2013-02-12 16:04:00,29.3,23.6,29.86,WSW,256,5.0,21.0,79,0.00,,,0.00,Wunderground v.1.15,2013-02-12 21:04:00,
2013-02-12 16:09:00,29.2,23.5,29.86,WSW,249,5.0,21.0,79,0.00,,,0.00,Wunderground v.1.15,2013-02-12 21:09:00,
2013-02-12 16:14:00,29.2,23.8,29.86,SW,226,5.0,21.0,80,0.00,,,0.00,Wunderground v.1.15,2013-02-12 21:14:00,
2013-02-12 16:20:00,29.1,23.4,29.86,SSW,212,4.0,21.0,79,0.00,,,0.00,Wunderground v.1.15,2013-02-12 21:20:00,
2013-02-12 16:25:00,29.0,23.6,29.85,SW,228,4.0,21.0,80,0.00,,,0.00,Wunderground v.1.15,2013-02-12 21:25:00,
2013-02-12 16:30:00,28.9,23.2,29.85,South,177,4.0,21.0,79,0.00,,,0.00,Wunderground v.1.15,2013-02-12 21:30:00,
2013-02-12 16:35:00,28.9,23.2,29.85,West,263,4.0,21.0,79,0.00,,,0.00,Wunderground v.1.15,2013-02-12 21:35:00,
2013-02-12 16:40:00,28.8,23.4,29.85,SW,232,4.0,4.0,80,0.00,,,0.00,Wunderground v.1.15,2013-02-12 21:40:00,
2013-02-12 16:45:00,28.8,23.1,29.84,WNW,301,3.0,21.0,79,0.00,,,0.00,Wunderground v.1.15,2013-02-12 21:45:00,
2013-02-12 16:50:00,28.8,23.4,29.83,SSW,200,3.0,3.0,80,0.00,,,0.00,Wunderground v.1.15,2013-02-12 21:50:00,
2013-02-12 16:55:00,28.8,23.4,29.84,West,264,3.0,21.0,80,0.00,,,0.00,Wunderground v.1.15,2013-02-12 21:55:00,
2013-02-12 17:00:00,28.7,23.0,29.83,WNW,292,4.0,21.0,79,0.00,,,0.00,Wunderground v.1.15,2013-02-12 22:00:00,
2013-02-12 17:05:00,28.7,23.0,29.84,NW,307,4.0,21.0,79,0.00,,,0.00,Wunderground v.1.15,2013-02-12 22:05:00,
2013-02-12 17:10:00,28.7,23.0,29.85,WSW,256,5.0,5.0,79,0.00,,,0.00,Wunderground v.1.15,2013-02-12 22:10:00,
2013-02-12 17:16:00,28.7,22.7,29.86,West,269,5.0,21.0,78,0.00,,,0.00,Wunderground v.1.15,2013-02-12 22:16:00,
2013-02-12 17:22:00,28.6,22.6,29.87,SSW,209,6.0,21.0,78,0.00,,,0.00,Wunderground v.1.15,2013-02-12 22:22:00,
2013-02-12 17:27:00,28.6,22.6,29.88,West,273,6.0,21.0,78,0.00,,,0.00,Wunderground v.1.15,2013-02-12 22:27:00,
2013-02-12 17:32:00,28.6,22.6,29.88,WSW,239,5.0,21.0,78,0.00,,,0.00,Wunderground v.1.15,2013-02-12 22:32:00,
2013-02-12 17:37:00,28.6,22.6,29.88,West,268,4.0,21.0,78,0.00,,,0.00,Wunderground v.1.15,2013-02-12 22:37:00,
2013-02-12 17:42:00,28.6,22.6,29.88,West,269,3.0,21.0,78,0.00,,,0.00,Wunderground v.1.15,2013-02-12 22:42:00,
2013-02-12 17:48:00,28.5,22.5,29.88,North,349,4.0,21.0,78,0.00,,,0.00,Wunderground v.1.15,2013-02-12 22:48:00,
2013-02-12 17:53:00,28.4,22.4,29.89,WNW,288,4.0,21.0,78,0.00,,,0.00,Wunderground v.1.15,2013-02-12 22:53:00,
2013-02-12 17:58:00,28.4,22.4,29.89,West,281,4.0,21.0,78,0.00,,,0.00,Wunderground v.1.15,2013-02-12 22:58:00,
2013-02-12 18:04:00,28.3,22.3,29.90,West,278,4.0,21.0,78,0.00,,,0.00,Wunderground v.1.15,2013-02-12 23:04:00,
2013-02-12 18:09:00,28.3,22.3,29.90,West,271,4.0,21.0,78,0.00,,,0.00,Wunderground v.1.15,2013-02-12 23:09:00,
2013-02-12 18:14:00,28.3,22.3,29.91,West,262,4.0,21.0,78,0.00,,,0.00,Wunderground v.1.15,2013-02-12 23:14:00,
2013-02-12 18:19:00,28.2,22.2,29.91,SW,215,4.0,21.0,78,0.00,,,0.00,Wunderground v.1.15,2013-02-12 23:19:00,
2013-02-12 18:24:00,28.2,22.2,29.92,West,281,3.0,21.0,78,0.00,,,0.00,Wunderground v.1.15,2013-02-12 23:24:00,
2013-02-12 18:29:00,28.2,22.2,29.92,WNW,290,4.0,21.0,78,0.00,,,0.00,Wunderground v.1.15,2013-02-12 23:29:00,
2013-02-12 18:35:00,28.2,22.2,29.93,WSW,257,4.0,21.0,78,0.00,,,0.00,Wunderground v.1.15,2013-02-12 23:35:00,
2013-02-12 18:40:00,28.2,22.2,29.93,NW,321,3.0,21.0,78,0.00,,,0.00,Wunderground v.1.15,2013-02-12 23:40:00,
2013-02-12 18:45:00,28.2,22.5,29.93,WNW,293,3.0,21.0,79,0.00,,,0.00,Wunderground v.1.15,2013-02-12 23:45:00,
2013-02-12 18:50:00,28.2,22.5,29.93,West,276,4.0,21.0,79,0.00,,,0.00,Wunderground v.1.15,2013-02-12 23:50:00,
2013-02-12 18:55:00,28.2,22.5,29.93,West,280,4.0,21.0,79,0.00,,,0.00,Wunderground v.1.15,2013-02-12 23:55:00,
2013-02-12 19:00:00,28.2,22.5,29.94,WSW,252,3.0,3.0,79,0.00,,,0.00,Wunderground v.1.15,2013-02-13 00:00:00,
2013-02-12 19:05:00,28.2,22.5,29.94,WNW,293,4.0,21.0,79,0.00,,,0.00,Wunderground v.1.15,2013-02-13 00:05:00,
2013-02-12 19:10:00,28.2,22.5,29.94,WNW,290,4.0,21.0,79,0.00,,,0.00,Wunderground v.1.15,2013-02-13 00:10:00,
2013-02-12 19:15:00,28.2,22.5,29.94,SW,233,4.0,21.0,79,0.00,,,0.00,Wunderground v.1.15,2013-02-13 00:15:00,
2013-02-12 19:20:00,28.2,22.5,29.94,NW,321,4.0,21.0,79,0.00,,,0.00,Wunderground v.1.15,2013-02-13 00:20:00,
2013-02-12 19:25:00,28.1,22.7,29.94,West,278,4.0,21.0,80,0.00,,,0.00,Wunderground v.1.15,2013-02-13 00:25:00,
2013-02-12 19:30:00,28.1,22.7,29.94,WNW,298,3.0,21.0,80,0.00,,,0.00,Wunderground v.1.15,2013-02-13 00:30:00,
2013-02-12 19:36:00,28.1,22.7,29.95,WNW,301,3.0,21.0,80,0.00,,,0.00,Wunderground v.1.15,2013-02-13 00:36:00,
2013-02-12 19:41:00,28.1,23.0,29.95,WNW,292,3.0,21.0,81,0.00,,,0.00,Wunderground v.1.15,2013-02-13 00:41:00,
2013-02-12 19:46:00,28.0,22.9,29.95,NW,316,3.0,21.0,81,0.00,,,0.00,Wunderground v.1.15,2013-02-13 00:46:00,
2013-02-12 19:51:00,28.1,22.7,29.95,SSW,201,4.0,21.0,80,0.00,,,0.00,Wunderground v.1.15,2013-02-13 00:51:00,
2013-02-12 19:56:00,28.0,22.9,29.95,SSW,205,5.0,21.0,81,0.00,,,0.00,Wunderground v.1.15,2013-02-13 00:56:00,
2013-02-12 20:01:00,28.0,22.9,29.95,NW,312,5.0,9.0,81,0.00,,,0.00,Wunderground v.1.15,2013-02-13 01:01:00,
2013-02-12 20:06:00,28.0,22.9,29.95,West,277,6.0,21.0,81,0.00,,,0.00,Wunderground v.1.15,2013-02-13 01:06:00,
2013-02-12 20:12:00,28.0,22.9,29.95,NW,326,6.0,21.0,81,0.00,,,0.00,Wunderground v.1.15,2013-02-13 01:12:00,
2013-02-12 20:17:00,27.9,22.8,29.95,NW,314,6.0,21.0,81,0.00,,,0.00,Wunderground v.1.15,2013-02-13 01:17:00,
2013-02-12 20:22:00,27.8,22.7,29.95,WSW,251,5.0,21.0,81,0.00,,,0.00,Wunderground v.1.15,2013-02-13 01:22:00,
2013-02-12 20:27:00,27.8,22.7,29.94,WSW,256,4.0,21.0,81,0.00,,,0.00,Wunderground v.1.15,2013-02-13 01:27:00,
2013-02-12 20:33:00,27.7,22.6,29.94,WNW,284,4.0,21.0,81,0.00,,,0.00,Wunderground v.1.15,2013-02-13 01:33:00,
2013-02-12 20:38:00,27.7,22.6,29.94,West,280,4.0,21.0,81,0.00,,,0.00,Wunderground v.1.15,2013-02-13 01:38:00,
2013-02-12 20:43:00,27.5,22.4,29.93,NNW,330,5.0,21.0,81,0.00,,,0.00,Wunderground v.1.15,2013-02-13 01:43:00,
2013-02-12 20:48:00,27.4,22.3,29.93,WSW,257,4.0,21.0,81,0.00,,,0.00,Wunderground v.1.15,2013-02-13 01:48:00,
2013-02-12 20:53:00,27.3,22.5,29.93,NW,311,4.0,21.0,82,0.00,,,0.00,Wunderground v.1.15,2013-02-13 01:53:00,
2013-02-12 20:58:00,27.2,22.4,29.94,NW,305,3.0,21.0,82,0.00,,,0.00,Wunderground v.1.15,2013-02-13 01:58:00,
2013-02-12 21:03:00,27.2,22.4,29.94,West,264,3.0,21.0,82,0.00,,,0.00,Wunderground v.1.15,2013-02-13 02:03:00,
2013-02-12 21:08:00,27.1,22.0,29.94,West,264,2.0,21.0,81,0.00,,,0.00,Wunderground v.1.15,2013-02-13 02:08:00,
2013-02-12 21:13:00,27.2,22.1,29.93,SW,232,3.0,21.0,81,0.00,,,0.00,Wunderground v.1.15,2013-02-13 02:13:00,
2013-02-12 21:18:00,27.1,21.7,29.93,WNW,284,4.0,21.0,80,0.00,,,0.00,Wunderground v.1.15,2013-02-13 02:18:00,
2013-02-12 21:24:00,27.1,22.0,29.93,WNW,284,5.0,21.0,81,0.00,,,0.00,Wunderground v.1.15,2013-02-13 02:24:00,
2013-02-12 21:29:00,27.1,21.7,29.93,SW,214,3.0,21.0,80,0.00,,,0.00,Wunderground v.1.15,2013-02-13 02:29:00,
2013-02-12 21:34:00,27.1,21.5,29.93,WSW,242,4.0,21.0,79,0.00,,,0.00,Wunderground v.1.15,2013-02-13 02:34:00,
2013-02-12 21:39:00,27.1,21.5,29.92,NW,310,3.0,21.0,79,0.00,,,0.00,Wunderground v.1.15,2013-02-13 02:39:00,
2013-02-12 21:44:00,27.1,21.5,29.92,WNW,293,3.0,21.0,79,0.00,,,0.00,Wunderground v.1.15,2013-02-13 02:44:00,
2013-02-12 21:50:00,27.0,21.4,29.93,WNW,282,4.0,21.0,79,0.00,,,0.00,Wunderground v.1.15,2013-02-13 02:50:00,
2013-02-12 21:55:00,27.0,21.4,29.93,WNW,300,4.0,21.0,79,0.00,,,0.00,Wunderground v.1.15,2013-02-13 02:55:00,
2013-02-12 22:00:00,26.9,21.3,29.92,WSW,245,4.0,21.0,79,0.00,,,0.00,Wunderground v.1.15,2013-02-13 03:00:00,
2013-02-12 22:05:00,26.9,21.3,29.93,West,263,4.0,21.0,79,0.00,,,0.00,Wunderground v.1.15,2013-02-13 03:05:00,
2013-02-12 22:10:00,26.9,21.3,29.93,WNW,295,4.0,21.0,79,0.00,,,0.00,Wunderground v.1.15,2013-02-13 03:10:00,
2013-02-12 22:16:00,26.9,21.3,29.93,West,271,4.0,21.0,79,0.00,,,0.00,Wunderground v.1.15,2013-02-13 03:16:00,
2013-02-12 22:21:00,26.9,21.3,29.93,WNW,288,5.0,21.0,79,0.00,,,0.00,Wunderground v.1.15,2013-02-13 03:21:00,
2013-02-12 22:26:00,26.8,20.9,29.93,SW,226,5.0,21.0,78,0.00,,,0.00,Wunderground v.1.15,2013-02-13 03:26:00,
2013-02-12 22:31:00,26.8,20.9,29.92,West,281,4.0,21.0,78,0.00,,,0.00,Wunderground v.1.15,2013-02-13 03:31:00,
2013-02-12 22:36:00,26.8,20.9,29.92,West,276,4.0,21.0,78,0.00,,,0.00,Wunderground v.1.15,2013-02-13 03:36:00,
2013-02-12 22:42:00,26.8,20.9,29.92,WNW,286,4.0,21.0,78,0.00,,,0.00,Wunderground v.1.15,2013-02-13 03:42:00,
2013-02-12 22:47:00,26.8,20.9,29.92,West,274,3.0,21.0,78,0.00,,,0.00,Wunderground v.1.15,2013-02-13 03:47:00,
2013-02-12 22:52:00,26.7,20.8,29.92,WSW,243,5.0,21.0,78,0.00,,,0.00,Wunderground v.1.15,2013-02-13 03:52:00,
2013-02-12 22:57:00,26.8,20.9,29.92,West,262,5.0,21.0,78,0.00,,,0.00,Wunderground v.1.15,2013-02-13 03:57:00,
2013-02-12 23:02:00,26.8,20.9,29.91,NW,321,5.0,21.0,78,0.00,,,0.00,Wunderground v.1.15,2013-02-13 04:02:00,
2013-02-12 23:08:00,26.7,20.8,29.91,NW,314,4.0,21.0,78,0.00,,,0.00,Wunderground v.1.15,2013-02-13 04:08:00,
2013-02-12 23:13:00,26.7,20.8,29.91,West,281,4.0,21.0,78,0.00,,,0.00,Wunderground v.1.15,2013-02-13 04:13:00,
2013-02-12 23:18:00,26.6,21.0,29.91,SW,235,4.0,21.0,79,0.00,,,0.00,Wunderground v.1.15,2013-02-13 04:18:00,
2013-02-12 23:23:00,26.7,20.8,29.91,NW,308,4.0,21.0,78,0.00,,,0.00,Wunderground v.1.15,2013-02-13 04:23:00,
2013-02-12 23:28:00,26.6,21.0,29.91,WNW,288,4.0,21.0,79,0.00,,,0.00,Wunderground v.1.15,2013-02-13 04:28:00,
2013-02-12 23:34:00,26.6,21.0,29.91,SW,227,4.0,21.0,79,0.00,,,0.00,Wunderground v.1.15,2013-02-13 04:34:00,
2013-02-12 23:39:00,26.6,21.0,29.91,WNW,283,4.0,21.0,79,0.00,,,0.00,Wunderground v.1.15,2013-02-13 04:39:00,
2013-02-12 23:44:00,26.6,21.0,29.91,NW,326,5.0,21.0,79,0.00,,,0.00,Wunderground v.1.15,2013-02-13 04:44:00,
2013-02-12 23:49:00,26.6,21.0,29.91,West,278,5.0,21.0,79,0.00,,,0.00,Wunderground v.1.15,2013-02-13 04:49:00,
2013-02-12 23:54:00,26.5,20.9,29.91,NW,325,5.0,21.0,79,0.00,,,0.00,Wunderground v.1.15,2013-02-13 04:54:00,